Regional Weather Roundup
Issued by NWS

Home | Current Version | Previous Version | Text Only | Print | Product List | Glossary On
Versions: 1 2 3 4 5 6 7 8 9 10 11 12 13 14 15 16 17 18 19 20 21 22 23 24 25 26 27 28
000
ASUS44 KBMX 121110
RWRAL

ALABAMA REGIONAL WEATHER ROUNDUP
NATIONAL WEATHER SERVICE BIRMINGHAM AL
500 AM CST TUE DEC 12 2017

NOTE: "FAIR" INDICATES FEW OR NO CLOUDS BELOW 12,000 FEET
WITH NO SIGNIFICANT WEATHER AND/OR OBSTRUCTIONS TO VISIBILITY.

THE REMARK "TC" DENOTES TEMPERATURE IN DEGREES CELSIUS.

ALZ001>011-014-016>018-020-121200-
NORTH ALABAMA

CITY           SKY/WX    TMP DP  RH WIND       PRES   REMARKS
MUSCLE SHOALS  MOCLDY    46  28  49 NW7       29.98S
HUNTSVILLE     MOCLDY    44  31  60 NW8       29.94R
DECATUR        MOCLDY    44  30  57 NW8       29.96R
HALEYVILLE     FAIR      42  29  59 NW6       29.98R
GADSDEN        PTCLDY    46  33  60 NW5       29.92R
$$

ALZ012-013-022-023-030>036-040>044-121200-
WEST CENTRAL ALABAMA

CITY           SKY/WX    TMP DP  RH WIND       PRES   REMARKS
TUSCALOOSA     CLEAR     35  34  96 W3        29.99R
DEMOPOLIS        N/A     39  35  84 W3        30.01R
$$

ALZ015-024>026-033>036-041>044-121200-
CENTRAL ALABAMA

CITY           SKY/WX    TMP DP  RH WIND       PRES   REMARKS
BIRMINGHAM     PTCLDY    45  32  60 NW12      29.96R
MONTGOMERY     CLEAR     46  36  68 W10       29.95R
SHELBY CO ARPT CLEAR     43  35  73 NW6       29.94R
MAXWELL AFB    CLEAR     39  38  97 W3        29.93R
GREENVILLE     FAIR      45  38  76 W8        29.94S
SELMA          FAIR      45  37  76 W9        29.96R
PRATTVILLE     FAIR      42  38  88 W8        29.94R
BESSEMER       FAIR      44  32  62 NW10      29.95R
TALLADEGA      FAIR      35  33  94 CALM      29.92R
PELL CITY      SUNNY     34  34 100 CALM      29.93R
MARION         FAIR      42  35  76 NW8       29.98R
SYLACAUGA      FAIR      38  38 100 W6        29.93R WCI  33
$$

ALZ019-021-028-029-037-038-045>048-121200-
EAST CENTRAL ALABAMA

CITY           SKY/WX    TMP DP  RH WIND       PRES   REMARKS
ANNISTON       CLEAR     40  35  83 SW10      29.91R WCI  33
ALEXANDER CITY CLEAR     33  32  99 N3        29.91S FOG
AUBURN         CLEAR     42  39  89 W6        29.91S
$$

ALZ051>064-121200-
SOUTHWEST ALABAMA

CITY           SKY/WX    TMP DP  RH WIND       PRES   REMARKS
MOBILE         CLEAR     46  41  82 W5        30.03S
BROOKLEY FIELD CLEAR     51  44  77 W8        30.04R
EVERGREEN      CLEAR     49  40  71 W5        29.98S
$$

ALZ049-050-065>069-121200-
SOUTHEAST ALABAMA

CITY           SKY/WX    TMP DP  RH WIND       PRES   REMARKS
DOTHAN         CLEAR     47  45  93 W9        29.97F
OZARK          CLEAR     42  40  93 SW5       29.95R
TROY           CLEAR     40  40 100 CALM      29.94F
EUFAULA        FAIR      47  41  80 SW5       29.91F
$$




USA.gov is the U.S. government's official web portal to all federal, state and local government web resources and services.